Location: Newark
(7.0858°N, 171.3717°E)
Time: 19:52:07
(UTC+00:00)

Tiros 1 - Pass Details

Date: 29 November 2020
Orbit: 630 x 663 km, 48.4° (Epoch: 18 January)

Event Time Altitude Azimuth Distance (km) Brightness Sun altitude
Rises 00:13:59 0° 196° (SSW) 2,966 10.9 61.3°
Reaches altitude 10° 00:16:42 10° 182° (S) 2,060 10.4 61.4°
Maximum altitude 00:20:32 24° 128° (SE) 1,350 9.5 61.4°
Drops below altitude 10° 00:24:23 10° 74° (ENE) 2,068 9.8 61.4°
Sets 00:27:05 0° 61° (ENE) 2,981 10.4 61.4°
